Home > Weather > Chesapeake > Past weeks

Flag for USA Past Weather in Chesapeake, Virginia, USA — Yesterday and Last 2 Weeks

Now
77 °F

Thunderstorms. Cloudy.


Feels Like: 78 °F
Forecast: 73 / 88 °F
Wind: 7 mph from Northeast

Location: Chesapeake Municipal Airport

Current Time: Jul 30, 2016 at 4:57:05 PM

Latest Report: Jul 30, 2016 at 4:15 PM


Visibility: 10 mi

Pressure: 29.99 "Hg

Humidity: 85%

Dew Point: 72 °F

Location of ChesapeakeLocation

Past Weather in Chesapeake — Graph

°F

Chesapeake Temperature Yesterday

Maximum temperature yesterday: 88 °F (at 2:35 PM)
Minimum temperature yesterday: 75 °F (at 11:55 PM)
Average temperature yesterday: 82 °F

High & Low Weather Summary for the Past Weeks

 TemperatureHumidityPressure
High95 °F (Jul 24, 4:35 PM)99% (Jul 18, 3:15 AM)30.21 "Hg (Jul 18, 3:15 AM)
Low65 °F (Jul 20, 5:15 AM)43% (Jul 21, 3:15 PM)29.79 "Hg (Jul 28, 6:55 PM)
Average80 °F81%30.02 "Hg
* Reported Jul 15 3:15 PM — Jul 30 3:35 PM, Chesapeake, Weather by CustomWeather, © 2016

Note: Actual official high and low records may vary slightly from our data, if they occured in-between our weather recording intervals... More about our weather records

Advertising

Chesapeake Weather History for the Previous 24 Hours

Scroll right to see more
 ConditionsComfort  
Time TempWeatherWind HumidityBarometerVisibility
3:35 PM
Sat, Jul 30
78 °FThunderstorms. Mostly cloudy.13 mph88%29.98 "Hg10 mi
3:15 PM81 °FThundershowers. More clouds than sun.No wind84%29.98 "Hg10 mi
2:55 PM81 °FThunderstorms. Cloudy.7 mph89%29.97 "Hg10 mi
2:15 PM82 °FStrong thunderstorms. Broken clouds.6 mph84%29.96 "Hg3 mi
1:55 PM85 °FThunderstorms. Scattered clouds.9 mph72%29.96 "Hg10 mi
1:35 PM88 °FThundershowers. Scattered clouds.12 mph65%29.97 "Hg10 mi
1:15 PM87 °FBroken clouds.9 mph67%29.97 "Hg10 mi
12:55 PM86 °FMore clouds than sun.8 mph70%29.98 "Hg10 mi
12:35 PM87 °FBroken clouds.7 mph67%29.99 "Hg10 mi
12:15 PM87 °FScattered clouds.8 mph68%29.99 "Hg10 mi
11:55 AM87 °FScattered clouds.7 mph67%29.99 "Hg10 mi
11:35 AM87 °FBroken clouds.5 mph65%29.99 "Hg10 mi
11:15 AM86 °FPartly sunny.5 mph68%29.99 "Hg10 mi
10:55 AM87 °FPartly sunny.6 mph65%29.99 "Hg10 mi
10:35 AM85 °FScattered clouds.5 mph67%29.99 "Hg10 mi
10:15 AM85 °FScattered clouds.No wind70%29.99 "Hg10 mi
9:55 AM85 °FSunny.3 mph71%29.99 "Hg10 mi
9:35 AM84 °FScattered clouds.No wind72%29.99 "Hg7 mi
9:15 AM83 °FSunny.3 mph75%29.99 "Hg10 mi
8:55 AM82 °FSunny.3 mph78%29.99 "Hg10 mi
8:15 AM80 °FSunny.3 mph84%29.99 "Hg10 mi
7:55 AM78 °FSunny.No wind89%29.99 "Hg10 mi
7:35 AM76 °FSunny.No wind91%29.98 "Hg10 mi
7:15 AM73 °FSunny.No wind95%29.98 "Hg10 mi
6:55 AM72 °FClear.No wind96%29.97 "Hg7 mi
6:35 AM72 °FClear.No wind97%29.97 "Hg10 mi
6:15 AM71 °FClear.No wind96%29.97 "Hg10 mi
5:55 AM71 °FFog.No wind98%29.96 "Hg2 mi
5:15 AM72 °FFog.No wind97%29.95 "Hg5 mi
4:55 AM71 °FClear.No wind98%29.94 "Hg7 mi
4:35 AM72 °FClear.No wind96%29.94 "Hg10 mi
4:15 AM72 °FClear.No wind97%29.94 "Hg10 mi
3:55 AM72 °FClear.No wind96%29.94 "Hg10 mi
3:35 AM72 °FPassing clouds.No wind96%29.94 "Hg10 mi
3:15 AM72 °FFog.No wind97%29.94 "Hg5 mi
2:55 AM73 °FClear.No wind96%29.94 "Hg10 mi
2:35 AM72 °FClear.No wind96%29.95 "Hg10 mi
2:15 AM73 °FClear.No wind96%29.94 "Hg10 mi
1:55 AM73 °FClear.No wind96%29.95 "Hg10 mi
1:35 AM72 °FClear.No wind97%29.94 "Hg10 mi
1:15 AM74 °FClear.No wind98%29.94 "Hg7 mi
12:55 AM74 °FClear.No wind97%29.95 "Hg10 mi
12:35 AM74 °FClear.No wind97%29.95 "Hg10 mi
12:15 AM74 °FClear.No wind97%29.95 "Hg7 mi
11:55 PM
Fri, Jul 29
75 °FClear.No wind97%29.95 "Hg7 mi
11:35 PM75 °FClear.No wind97%29.95 "Hg7 mi
11:15 PM75 °FClear.No wind95%29.95 "Hg10 mi
10:55 PM75 °FClear.No wind95%29.95 "Hg10 mi
10:35 PM76 °FClear.No wind94%29.94 "Hg10 mi
10:15 PM77 °FClear.No wind91%29.94 "Hg10 mi
9:55 PM77 °FClear.No wind93%29.94 "Hg10 mi
9:35 PM78 °FClear.No wind92%29.94 "Hg10 mi
9:15 PM79 °FClear.No wind86%29.93 "Hg10 mi
8:55 PM80 °FSunny.No wind85%29.92 "Hg10 mi
8:15 PM82 °FScattered clouds.No wind76%29.91 "Hg10 mi
7:55 PM83 °FScattered clouds.No wind72%29.91 "Hg10 mi
7:35 PM84 °FPartly sunny.No wind73%29.90 "Hg10 mi
7:15 PM84 °FOvercast.3 mph73%29.90 "Hg10 mi
6:55 PM84 °FOvercast.3 mph71%29.90 "Hg10 mi
6:35 PM85 °FMore clouds than sun.5 mph71%29.89 "Hg10 mi
6:15 PM85 °FCloudy.3 mph71%29.89 "Hg10 mi
5:55 PM86 °FPartly sunny.3 mph67%29.89 "Hg10 mi
5:35 PM86 °FScattered clouds.5 mph64%29.88 "Hg10 mi
5:15 PM87 °FPartly sunny.3 mph63%29.88 "Hg10 mi
4:55 PM87 °FMore clouds than sun.6 mph64%29.88 "Hg10 mi
4:15 PM87 °FOvercast.6 mph65%29.87 "Hg10 mi
Weather by CustomWeather, © 2016

See weather overviewHow to use our weather pages